TimeMDT,TemperatureF,Dew PointF,Humidity,Sea Level PressureIn,VisibilityMPH,Wind Direction,Wind SpeedMPH,Gust SpeedMPH,PrecipitationIn,Events,Conditions,WindDirDegrees,DateUTC
12:31 AM,37.4,30.2,75,29.65,9.0,North,10.4,-,N/A,,Overcast,350,2013-04-08 06:31:00
12:42 AM,37.4,30.2,75,29.66,8.0,North,9.2,-,N/A,,Overcast,10,2013-04-08 06:42:00
12:51 AM,37.0,30.9,79,29.68,9.0,NNE,10.4,-,N/A,,Overcast,30,2013-04-08 06:51:00
1:51 AM,34.0,28.9,82,29.71,9.0,North,11.5,-,N/A,,Overcast,10,2013-04-08 07:51:00
2:51 AM,33.1,28.0,82,29.71,9.0,NNE,18.4,-,0.00,Rain,Light Rain,20,2013-04-08 08:51:00
3:51 AM,33.1,28.0,82,29.72,10.0,NNE,13.8,24.2,0.00,,Overcast,30,2013-04-08 09:51:00
4:51 AM,32.0,27.0,82,29.73,5.0,NNE,12.7,17.3,0.00,Snow,Light Snow,20,2013-04-08 10:51:00
5:03 AM,32.0,26.6,80,29.72,2.5,NNE,15.0,-,0.03,Snow,Light Snow,30,2013-04-08 11:03:00
5:34 AM,30.2,26.6,86,29.72,1.8,North,10.4,-,0.06,Snow,Light Snow,360,2013-04-08 11:34:00
5:51 AM,30.9,27.0,85,29.75,1.0,North,10.4,-,0.08,Snow,Light Snow,10,2013-04-08 11:51:00
5:57 AM,30.2,26.6,86,29.73,0.8,North,11.5,-,0.01,Snow,Light Snow,10,2013-04-08 11:57:00
6:51 AM,30.0,26.1,85,29.81,0.5,NW,12.7,-,0.08,Fog,Light Freezing Fog,320,2013-04-08 12:51:00
7:51 AM,27.0,23.0,85,29.88,0.2,NNW,19.6,-,0.03,Fog-Snow,Heavy Snow,340,2013-04-08 13:51:00
8:06 AM,26.6,23.0,86,29.85,0.2,NNW,19.6,-,0.01,Fog-Snow,Heavy Snow,340,2013-04-08 14:06:00
8:21 AM,26.6,21.2,80,29.86,0.2,NNW,20.7,-,0.01,Fog-Snow,Snow,340,2013-04-08 14:21:00
8:51 AM,25.0,21.0,85,29.94,0.5,NNW,16.1,27.6,0.03,Fog-Snow,Snow,340,2013-04-08 14:51:00
9:43 AM,23.0,17.6,80,29.92,0.8,North,20.7,28.8,0.00,Snow,Light Snow,360,2013-04-08 15:43:00
9:51 AM,23.0,17.1,78,30.00,0.8,North,20.7,-,0.00,Snow,Light Snow,10,2013-04-08 15:51:00
9:59 AM,23.0,17.6,80,29.95,1.0,North,20.7,28.8,0.00,Snow,Light Snow,10,2013-04-08 15:59:00
10:24 AM,23.0,17.6,80,29.96,0.8,North,17.3,-,0.00,,Haze,10,2013-04-08 16:24:00
10:51 AM,23.0,16.0,74,30.05,0.8,North,21.9,-,0.01,Snow,Light Snow,10,2013-04-08 16:51:00
10:59 AM,23.0,15.8,74,29.98,1.0,North,20.7,-,0.00,Snow,Light Snow,10,2013-04-08 16:59:00
11:31 AM,21.2,15.8,80,30.00,2.0,North,21.9,-,0.00,Snow,Light Snow,10,2013-04-08 17:31:00
11:37 AM,21.2,15.8,80,30.00,3.0,North,20.7,28.8,0.00,Snow,Light Snow,10,2013-04-08 17:37:00
11:43 AM,21.2,15.8,80,30.02,4.0,North,21.9,28.8,0.00,Snow,Light Snow,10,2013-04-08 17:43:00
11:51 AM,21.9,15.1,75,30.10,4.0,North,24.2,-,0.00,Snow,Light Snow,10,2013-04-08 17:51:00
12:00 PM,21.2,15.8,80,30.02,6.0,North,24.2,-,0.00,Snow,Light Snow,10,2013-04-08 18:00:00
12:51 PM,21.9,14.0,72,30.12,10.0,NNE,20.7,-,0.00,,Overcast,20,2013-04-08 18:51:00
1:25 PM,21.2,12.2,68,30.07,10.0,NNE,18.4,-,N/A,,Overcast,20,2013-04-08 19:25:00
1:51 PM,21.0,12.0,68,30.19,10.0,NNE,12.7,-,N/A,,Overcast,20,2013-04-08 19:51:00
2:51 PM,21.0,12.9,71,30.19,10.0,NNE,18.4,-,N/A,,Overcast,20,2013-04-08 20:51:00
3:04 PM,21.2,12.2,68,30.10,10.0,NNE,20.7,-,N/A,,Overcast,20,2013-04-08 21:04:00
3:51 PM,21.0,12.9,71,30.21,9.0,NNE,20.7,-,N/A,,Overcast,20,2013-04-08 21:51:00
4:41 PM,21.2,12.2,68,30.13,9.0,NNE,19.6,-,0.00,,Overcast,20,2013-04-08 22:41:00
4:51 PM,21.0,12.9,71,30.23,3.0,NNE,18.4,-,0.00,Snow,Light Snow,20,2013-04-08 22:51:00
4:58 PM,21.2,12.2,68,30.14,2.5,North,17.3,-,0.00,Snow,Light Snow,10,2013-04-08 22:58:00
5:07 PM,19.4,12.2,74,30.14,3.0,North,16.1,-,0.00,Snow,Light Snow,10,2013-04-08 23:07:00
5:51 PM,19.9,12.0,71,30.26,10.0,North,18.4,-,0.00,,Overcast,10,2013-04-08 23:51:00
6:17 PM,19.4,12.2,74,30.17,10.0,North,15.0,-,N/A,,Overcast,10,2013-04-09 00:17:00
6:51 PM,18.0,10.9,74,30.30,10.0,North,16.1,-,N/A,,Overcast,10,2013-04-09 00:51:00
7:51 PM,17.1,9.0,71,30.34,10.0,North,15.0,-,N/A,,Scattered Clouds,10,2013-04-09 01:51:00
8:10 PM,17.6,8.6,68,30.23,10.0,North,13.8,-,N/A,,Mostly Cloudy,360,2013-04-09 02:10:00
8:23 PM,15.8,8.6,73,30.24,10.0,North,15.0,-,N/A,,Scattered Clouds,10,2013-04-09 02:23:00
8:51 PM,16.0,8.1,71,30.37,10.0,North,15.0,21.9,N/A,,Clear,10,2013-04-09 02:51:00
9:51 PM,15.1,7.0,70,30.42,10.0,North,12.7,-,N/A,,Overcast,360,2013-04-09 03:51:00
11:51 PM,14.0,6.1,71,30.43,10.0,North,13.8,-,N/A,,Overcast,360,2013-04-09 05:51:00